Year,Month,Day,Hour,Minute,Value (Times are PST for temperature in C)
2016,03,25,00,00,5.30
2016,03,25,00,01,5.30
2016,03,25,00,02,5.30
2016,03,25,00,03,5.30
2016,03,25,00,04,5.20
2016,03,25,00,05,5.20
2016,03,25,00,06,5.20
2016,03,25,00,07,5.20
2016,03,25,00,08,5.10
2016,03,25,00,09,5.10
2016,03,25,00,10,5.10
2016,03,25,00,11,5.10
2016,03,25,00,12,5.10
2016,03,25,00,13,5.10
2016,03,25,00,14,5.10
2016,03,25,00,15,5.10
2016,03,25,00,16,5.10
2016,03,25,00,17,5.20
2016,03,25,00,18,5.20
2016,03,25,00,19,5.20
2016,03,25,00,20,5.20
2016,03,25,00,21,5.20
2016,03,25,00,22,5.30
2016,03,25,00,23,5.30
2016,03,25,00,24,5.30
2016,03,25,00,25,5.30
2016,03,25,00,26,5.30
2016,03,25,00,27,5.40
2016,03,25,00,28,5.40
2016,03,25,00,29,5.40
2016,03,25,00,30,5.50
2016,03,25,00,31,5.50
2016,03,25,00,32,5.50
2016,03,25,00,33,5.60
2016,03,25,00,34,5.60
2016,03,25,00,35,5.60
2016,03,25,00,36,5.60
2016,03,25,00,37,5.60
2016,03,25,00,38,5.60
2016,03,25,00,39,5.60
2016,03,25,00,40,5.70
2016,03,25,00,41,5.70
2016,03,25,00,42,5.70
2016,03,25,00,43,5.70
2016,03,25,00,44,5.70
2016,03,25,00,45,5.70
2016,03,25,00,46,5.70
2016,03,25,00,47,5.70
2016,03,25,00,48,5.70
2016,03,25,00,49,5.70
2016,03,25,00,50,5.80
2016,03,25,00,51,5.80
2016,03,25,00,52,5.80
2016,03,25,00,53,5.80
2016,03,25,00,54,5.80
2016,03,25,00,55,5.80
2016,03,25,00,56,5.80
2016,03,25,00,57,5.80
2016,03,25,00,58,5.80
2016,03,25,00,59,5.80
2016,03,25,01,00,5.80
2016,03,25,01,01,5.80
2016,03,25,01,02,5.80
2016,03,25,01,03,5.80
2016,03,25,01,04,5.80
2016,03,25,01,05,5.80
2016,03,25,01,06,5.90
2016,03,25,01,07,5.90
2016,03,25,01,08,5.90
2016,03,25,01,09,5.90
2016,03,25,01,10,5.90
2016,03,25,01,11,5.90
2016,03,25,01,12,5.90
2016,03,25,01,13,5.90
2016,03,25,01,14,5.90
2016,03,25,01,15,5.90
2016,03,25,01,16,5.90
2016,03,25,01,17,5.90
2016,03,25,01,18,5.90
2016,03,25,01,19,5.90
2016,03,25,01,20,5.90
2016,03,25,01,21,5.90
2016,03,25,01,22,5.90
2016,03,25,01,23,5.90
2016,03,25,01,24,5.90
2016,03,25,01,25,5.90
2016,03,25,01,26,5.90
2016,03,25,01,27,5.90
2016,03,25,01,28,5.90
2016,03,25,01,29,5.90
2016,03,25,01,30,5.90
2016,03,25,01,31,5.90
2016,03,25,01,32,5.90
2016,03,25,01,33,5.90
2016,03,25,01,34,5.90
2016,03,25,01,35,5.90
2016,03,25,01,36,5.90
2016,03,25,01,37,5.90
2016,03,25,01,38,5.90
2016,03,25,01,39,5.90
2016,03,25,01,40,5.90
2016,03,25,01,41,5.90
2016,03,25,01,42,5.90
2016,03,25,01,43,5.90
2016,03,25,01,44,5.90
2016,03,25,01,45,5.90
2016,03,25,01,46,5.90
2016,03,25,01,47,5.90
2016,03,25,01,48,5.90
2016,03,25,01,49,5.90
2016,03,25,01,50,5.90
2016,03,25,01,51,5.90
2016,03,25,01,52,5.90
2016,03,25,01,53,5.90
2016,03,25,01,54,5.90
2016,03,25,01,55,5.90
2016,03,25,01,56,5.90
2016,03,25,01,57,5.90
2016,03,25,01,58,5.90
2016,03,25,01,59,5.90
2016,03,25,02,00,5.90
2016,03,25,02,01,5.90
2016,03,25,02,02,5.90
2016,03,25,02,03,5.90
2016,03,25,02,04,5.90
2016,03,25,02,05,5.90
2016,03,25,02,06,5.90
2016,03,25,02,07,5.90
2016,03,25,02,08,5.90
2016,03,25,02,09,5.90
2016,03,25,02,10,5.80
2016,03,25,02,11,5.80
2016,03,25,02,12,5.80
2016,03,25,02,13,5.80
2016,03,25,02,14,5.80
2016,03,25,02,15,5.80
2016,03,25,02,16,5.80
2016,03,25,02,17,5.80
2016,03,25,02,18,5.80
2016,03,25,02,19,5.80
2016,03,25,02,20,5.80
2016,03,25,02,21,5.80
2016,03,25,02,22,5.80
2016,03,25,02,23,5.70
2016,03,25,02,24,5.70
2016,03,25,02,25,5.70
2016,03,25,02,26,5.70
2016,03,25,02,27,5.70
2016,03,25,02,28,5.60
2016,03,25,02,29,5.60
2016,03,25,02,30,5.60
2016,03,25,02,31,5.60
2016,03,25,02,32,5.60
2016,03,25,02,33,5.60
2016,03,25,02,34,5.50
2016,03,25,02,35,5.50
2016,03,25,02,36,5.50
2016,03,25,02,37,5.40
2016,03,25,02,38,5.40
2016,03,25,02,39,5.40
2016,03,25,02,40,5.40
2016,03,25,02,41,5.40
2016,03,25,02,42,5.30
2016,03,25,02,43,5.30
2016,03,25,02,44,5.30
2016,03,25,02,45,5.30
2016,03,25,02,46,5.30
2016,03,25,02,47,5.20
2016,03,25,02,48,5.20
2016,03,25,02,49,5.20
2016,03,25,02,50,5.20
2016,03,25,02,51,5.20
2016,03,25,02,52,5.20
2016,03,25,02,53,5.20
2016,03,25,02,54,5.10
2016,03,25,02,55,5.10
2016,03,25,02,56,5.10
2016,03,25,02,57,5.10
2016,03,25,02,58,5.10
2016,03,25,02,59,5.10
2016,03,25,03,00,5.10
2016,03,25,03,01,5.10
2016,03,25,03,02,5.10
2016,03,25,03,03,5.10
2016,03,25,03,04,5.00
2016,03,25,03,05,5.00
2016,03,25,03,06,5.00
2016,03,25,03,07,5.00
2016,03,25,03,08,5.00
2016,03,25,03,09,5.00
2016,03,25,03,10,5.00
2016,03,25,03,11,5.00
2016,03,25,03,12,4.90
2016,03,25,03,13,4.90
2016,03,25,03,14,4.90
2016,03,25,03,15,4.90
2016,03,25,03,16,4.90
2016,03,25,03,17,4.90
2016,03,25,03,18,4.90
2016,03,25,03,19,4.90
2016,03,25,03,20,4.90
2016,03,25,03,21,4.80
2016,03,25,03,22,4.80
2016,03,25,03,23,4.80
2016,03,25,03,24,4.80
2016,03,25,03,25,4.80
2016,03,25,03,26,4.80
2016,03,25,03,27,4.80
2016,03,25,03,28,4.80
2016,03,25,03,29,4.80
2016,03,25,03,30,4.80
2016,03,25,03,31,4.80
2016,03,25,03,32,4.80
2016,03,25,03,33,4.80
2016,03,25,03,34,4.70
2016,03,25,03,35,4.70
2016,03,25,03,36,4.70
2016,03,25,03,37,4.60
2016,03,25,03,38,4.60
2016,03,25,03,39,4.60
2016,03,25,03,40,4.50
2016,03,25,03,41,4.50
2016,03,25,03,42,4.40
2016,03,25,03,43,4.40
2016,03,25,03,44,4.40
2016,03,25,03,45,4.30
2016,03,25,03,46,4.30
2016,03,25,03,47,4.30
2016,03,25,03,48,4.30
2016,03,25,03,49,4.30
2016,03,25,03,50,4.30
2016,03,25,03,51,4.30
2016,03,25,03,52,4.30
2016,03,25,03,53,4.30
2016,03,25,03,54,4.20
2016,03,25,03,55,4.20
2016,03,25,03,56,4.20
2016,03,25,03,57,4.20
2016,03,25,03,58,4.20
2016,03,25,03,59,4.20
2016,03,25,04,00,4.20
2016,03,25,04,01,4.10
2016,03,25,04,02,4.10
2016,03,25,04,03,4.10
2016,03,25,04,04,4.10
2016,03,25,04,05,4.10
2016,03,25,04,06,4.00
2016,03,25,04,07,3.90
2016,03,25,04,08,3.80
2016,03,25,04,09,3.70
2016,03,25,04,10,3.70
2016,03,25,04,11,3.60
2016,03,25,04,12,3.60
2016,03,25,04,13,3.60
2016,03,25,04,14,3.60
2016,03,25,04,15,3.60
2016,03,25,04,16,3.60
2016,03,25,04,17,3.60
2016,03,25,04,18,3.60
2016,03,25,04,19,3.60
2016,03,25,04,20,3.60
2016,03,25,04,21,3.50
2016,03,25,04,22,3.50
2016,03,25,04,23,3.50
2016,03,25,04,24,3.50
2016,03,25,04,25,3.50
2016,03,25,04,26,3.50
2016,03,25,04,27,3.40
2016,03,25,04,28,3.40
2016,03,25,04,29,3.40
2016,03,25,04,30,3.40
2016,03,25,04,31,3.40
2016,03,25,04,32,3.40
2016,03,25,04,33,3.40
2016,03,25,04,34,3.40
2016,03,25,04,35,3.40
2016,03,25,04,36,3.40
2016,03,25,04,37,3.30
2016,03,25,04,38,3.30
2016,03,25,04,39,3.30
2016,03,25,04,40,3.30
2016,03,25,04,41,3.30
2016,03,25,04,42,3.30
2016,03,25,04,43,3.30
2016,03,25,04,44,3.30
2016,03,25,04,45,3.30
2016,03,25,04,46,3.20
2016,03,25,04,47,3.20
2016,03,25,04,48,3.10
2016,03,25,04,49,3.00
2016,03,25,04,50,2.90
2016,03,25,04,51,2.80
2016,03,25,04,52,2.80
2016,03,25,04,53,2.70
2016,03,25,04,54,2.70
2016,03,25,04,55,2.70
2016,03,25,04,56,2.70
2016,03,25,04,57,2.60
2016,03,25,04,58,2.60
2016,03,25,04,59,2.60
2016,03,25,05,00,2.60
2016,03,25,05,01,2.60
2016,03,25,05,02,2.60
2016,03,25,05,03,2.60
2016,03,25,05,04,2.60
2016,03,25,05,05,2.70
2016,03,25,05,06,2.70
2016,03,25,05,07,2.70
2016,03,25,05,08,2.70
2016,03,25,05,09,2.70
2016,03,25,05,10,2.80
2016,03,25,05,11,2.80
2016,03,25,05,12,2.80
2016,03,25,05,13,2.80
2016,03,25,05,14,2.80
2016,03,25,05,15,2.80
2016,03,25,05,16,2.80
2016,03,25,05,17,2.80
2016,03,25,05,18,2.80
2016,03,25,05,19,2.80
2016,03,25,05,20,2.80
2016,03,25,05,21,2.80
2016,03,25,05,22,2.80
2016,03,25,05,23,2.70
2016,03,25,05,24,2.70
2016,03,25,05,25,2.60
2016,03,25,05,26,2.60
2016,03,25,05,27,2.60
2016,03,25,05,28,2.50
2016,03,25,05,29,2.50
2016,03,25,05,30,2.40
2016,03,25,05,31,2.40
2016,03,25,05,32,2.40
2016,03,25,05,33,2.30
2016,03,25,05,34,2.30
2016,03,25,05,35,2.30
2016,03,25,05,36,2.30
2016,03,25,05,37,2.30
2016,03,25,05,38,2.30
2016,03,25,05,39,2.20
2016,03,25,05,40,2.20
2016,03,25,05,41,2.20
2016,03,25,05,42,2.20
2016,03,25,05,43,2.20
2016,03,25,05,44,2.20
2016,03,25,05,45,2.10
2016,03,25,05,46,2.10
2016,03,25,05,47,2.10
2016,03,25,05,48,2.00
2016,03,25,05,49,2.00
2016,03,25,05,50,2.00
2016,03,25,05,51,1.90
2016,03,25,05,52,1.90
2016,03,25,05,53,1.90
2016,03,25,05,54,1.80
2016,03,25,05,55,1.80
2016,03,25,05,56,1.80
2016,03,25,05,57,1.80
2016,03,25,05,58,1.80
2016,03,25,05,59,1.80
2016,03,25,06,00,1.80
2016,03,25,06,01,1.80
2016,03,25,06,02,1.80
2016,03,25,06,03,1.80
2016,03,25,06,04,1.80
2016,03,25,06,05,1.80
2016,03,25,06,06,1.70
2016,03,25,06,07,1.70
2016,03,25,06,08,1.70
2016,03,25,06,09,1.70
2016,03,25,06,10,1.70
2016,03,25,06,11,1.70
2016,03,25,06,12,1.70
2016,03,25,06,13,1.70
2016,03,25,06,14,1.70
2016,03,25,06,15,1.70
2016,03,25,06,16,1.60
2016,03,25,06,17,1.70
2016,03,25,06,18,1.70
2016,03,25,06,19,1.70
2016,03,25,06,20,1.70
2016,03,25,06,21,1.60
2016,03,25,06,22,1.60
2016,03,25,06,23,1.60
2016,03,25,06,24,1.60
2016,03,25,06,25,1.60
2016,03,25,06,26,1.60
2016,03,25,06,27,1.60
2016,03,25,06,28,1.50
2016,03,25,06,29,1.50
2016,03,25,06,30,1.50
2016,03,25,06,31,1.50
2016,03,25,06,32,1.50
2016,03,25,06,33,1.60
2016,03,25,06,34,1.60
2016,03,25,06,35,1.60
2016,03,25,06,36,1.60
2016,03,25,06,37,1.60
2016,03,25,06,38,1.60
2016,03,25,06,39,1.60
2016,03,25,06,40,1.60
2016,03,25,06,41,1.60
2016,03,25,06,42,1.60
2016,03,25,06,43,1.60
2016,03,25,06,44,1.60
2016,03,25,06,45,1.60
2016,03,25,06,46,1.50
2016,03,25,06,47,1.50
2016,03,25,06,48,1.40
2016,03,25,06,49,1.40
2016,03,25,06,50,1.40
2016,03,25,06,51,1.30
2016,03,25,06,52,1.30
2016,03,25,06,53,1.30
2016,03,25,06,54,1.20
2016,03,25,06,55,1.20
2016,03,25,06,56,1.20
2016,03,25,06,57,1.20
2016,03,25,06,58,1.20
2016,03,25,06,59,1.20
2016,03,25,07,00,1.20
2016,03,25,07,01,1.20
2016,03,25,07,02,1.20
2016,03,25,07,03,1.20
2016,03,25,07,04,1.20
2016,03,25,07,05,1.20
2016,03,25,07,06,1.20
2016,03,25,07,07,1.20
2016,03,25,07,08,1.20
2016,03,25,07,09,1.20
2016,03,25,07,10,1.20
2016,03,25,07,11,1.20
2016,03,25,07,12,1.10
2016,03,25,07,13,1.10
2016,03,25,07,14,1.10
2016,03,25,07,15,1.00
2016,03,25,07,16,1.00
2016,03,25,07,17,1.00
2016,03,25,07,18,0.90
2016,03,25,07,19,0.90
2016,03,25,07,20,0.90
2016,03,25,07,21,0.90
2016,03,25,07,22,0.90
2016,03,25,07,23,0.90
2016,03,25,07,24,0.90
2016,03,25,07,25,0.90
2016,03,25,07,26,0.90
2016,03,25,07,27,0.90
2016,03,25,07,28,0.90
2016,03,25,07,29,0.90
2016,03,25,07,30,0.90
2016,03,25,07,31,0.90
2016,03,25,07,32,0.90
2016,03,25,07,33,0.90
2016,03,25,07,34,0.80
2016,03,25,07,35,0.80
2016,03,25,07,36,0.80
2016,03,25,07,37,0.70
2016,03,25,07,38,0.70
2016,03,25,07,39,0.70
2016,03,25,07,40,0.60
2016,03,25,07,41,0.60
2016,03,25,07,42,0.50
2016,03,25,07,43,0.50
2016,03,25,07,44,0.50
2016,03,25,07,45,0.40
2016,03,25,07,46,0.40
2016,03,25,07,47,0.40
2016,03,25,07,48,0.30
2016,03,25,07,49,0.30
2016,03,25,07,50,0.30
2016,03,25,07,51,0.30
2016,03,25,07,52,0.30
2016,03,25,07,53,0.30
2016,03,25,07,54,0.30
2016,03,25,07,55,0.30
2016,03,25,07,56,0.30
2016,03,25,07,57,0.30
2016,03,25,07,58,0.30
2016,03,25,07,59,0.30
2016,03,25,08,00,0.30
2016,03,25,08,01,0.40
2016,03,25,08,02,0.40
2016,03,25,08,03,0.40
2016,03,25,08,04,0.40
2016,03,25,08,05,0.40
2016,03,25,08,06,0.40
2016,03,25,08,07,0.40
2016,03,25,08,08,0.40
2016,03,25,08,09,0.40
2016,03,25,08,10,0.50
2016,03,25,08,11,0.50
2016,03,25,08,12,0.50
2016,03,25,08,13,0.60
2016,03,25,08,14,0.60
2016,03,25,08,15,0.70
2016,03,25,08,16,0.70
2016,03,25,08,17,0.80
2016,03,25,08,18,0.90
2016,03,25,08,19,1.00
2016,03,25,08,20,1.00
2016,03,25,08,21,1.10
2016,03,25,08,22,1.20
2016,03,25,08,23,1.20
2016,03,25,08,24,1.30
2016,03,25,08,25,1.40
2016,03,25,08,26,1.40
2016,03,25,08,27,1.50
2016,03,25,08,28,1.60
2016,03,25,08,29,1.60
2016,03,25,08,30,1.70
2016,03,25,08,31,1.70
2016,03,25,08,32,1.80
2016,03,25,08,33,1.90
2016,03,25,08,34,1.90
2016,03,25,08,35,2.00
2016,03,25,08,36,2.00
2016,03,25,08,37,2.10
2016,03,25,08,38,2.20
2016,03,25,08,39,2.20
2016,03,25,08,40,2.30
2016,03,25,08,41,2.30
2016,03,25,08,42,2.40
2016,03,25,08,43,2.50
2016,03,25,08,44,2.60
2016,03,25,08,45,2.60
2016,03,25,08,46,2.70
2016,03,25,08,47,2.70
2016,03,25,08,48,2.80
2016,03,25,08,49,2.80
2016,03,25,08,50,2.80
2016,03,25,08,51,2.80
2016,03,25,08,52,2.80
2016,03,25,08,53,2.80
2016,03,25,08,54,2.80
2016,03,25,08,55,2.80
2016,03,25,08,56,2.80
2016,03,25,08,57,2.80
2016,03,25,08,58,2.80
2016,03,25,08,59,2.80
2016,03,25,09,00,2.80
2016,03,25,09,01,2.90
2016,03,25,09,02,2.90
2016,03,25,09,03,3.00
2016,03,25,09,04,3.10
2016,03,25,09,05,3.10
2016,03,25,09,06,3.20
2016,03,25,09,07,3.30
2016,03,25,09,08,3.30
2016,03,25,09,09,3.40
2016,03,25,09,10,3.50
2016,03,25,09,11,3.60
2016,03,25,09,12,3.70
2016,03,25,09,13,3.80
2016,03,25,09,14,3.80
2016,03,25,09,15,3.90
2016,03,25,09,16,4.00
2016,03,25,09,17,4.10
2016,03,25,09,18,4.10
2016,03,25,09,19,4.20
2016,03,25,09,20,4.30
2016,03,25,09,21,4.40
2016,03,25,09,22,4.40
2016,03,25,09,23,4.50
2016,03,25,09,24,4.50
2016,03,25,09,25,4.60
2016,03,25,09,26,4.60
2016,03,25,09,27,4.60
2016,03,25,09,28,4.60
2016,03,25,09,29,4.60
2016,03,25,09,30,4.60
2016,03,25,09,31,4.60
2016,03,25,09,32,4.60
2016,03,25,09,33,4.60
2016,03,25,09,34,4.60
2016,03,25,09,35,4.60
2016,03,25,09,36,4.60
2016,03,25,09,37,4.60
2016,03,25,09,38,4.60
2016,03,25,09,39,4.60
2016,03,25,09,40,4.60
2016,03,25,09,41,4.70
2016,03,25,09,42,4.70
2016,03,25,09,43,4.70
2016,03,25,09,44,4.80
2016,03,25,09,45,4.80
2016,03,25,09,46,4.90
2016,03,25,09,47,4.90
2016,03,25,09,48,5.00
2016,03,25,09,49,5.10
2016,03,25,09,50,5.10
2016,03,25,09,51,5.20
2016,03,25,09,52,5.30
2016,03,25,09,53,5.30
2016,03,25,09,54,5.30
2016,03,25,09,55,5.40
2016,03,25,09,56,5.50
2016,03,25,09,57,5.50
2016,03,25,09,58,5.60
2016,03,25,09,59,5.70
2016,03,25,10,00,5.80
2016,03,25,10,01,5.80
2016,03,25,10,02,5.90
2016,03,25,10,03,6.00
2016,03,25,10,04,6.00
2016,03,25,10,05,6.10
2016,03,25,10,06,6.20
2016,03,25,10,07,6.30
2016,03,25,10,08,6.30
2016,03,25,10,09,6.30
2016,03,25,10,10,6.40
2016,03,25,10,11,6.40
2016,03,25,10,12,6.50
2016,03,25,10,13,6.50
2016,03,25,10,14,6.50
2016,03,25,10,15,6.60
2016,03,25,10,16,6.50
2016,03,25,10,17,6.50
2016,03,25,10,18,6.50
2016,03,25,10,19,6.50
2016,03,25,10,20,6.40
2016,03,25,10,21,6.50
2016,03,25,10,22,6.50
2016,03,25,10,23,6.50
2016,03,25,10,24,6.60
2016,03,25,10,25,6.60
2016,03,25,10,26,6.60
2016,03,25,10,27,6.70
2016,03,25,10,28,6.70
2016,03,25,10,29,6.80
2016,03,25,10,30,6.80
2016,03,25,10,31,6.80
2016,03,25,10,32,6.90
2016,03,25,10,33,6.90
2016,03,25,10,34,6.90
2016,03,25,10,35,6.90
2016,03,25,10,36,6.90
2016,03,25,10,37,7.00
2016,03,25,10,38,7.00
2016,03,25,10,39,7.10
2016,03,25,10,40,7.10
2016,03,25,10,41,7.20
2016,03,25,10,42,7.20
2016,03,25,10,43,7.30
2016,03,25,10,44,7.30
2016,03,25,10,45,7.40
2016,03,25,10,46,7.50
2016,03,25,10,47,7.60
2016,03,25,10,48,7.70
2016,03,25,10,49,7.70
2016,03,25,10,50,7.80
2016,03,25,10,51,7.80
2016,03,25,10,52,7.80
2016,03,25,10,53,7.80
2016,03,25,10,54,7.80
2016,03,25,10,55,7.90
2016,03,25,10,56,7.90
2016,03,25,10,57,7.90
2016,03,25,10,58,7.90
2016,03,25,10,59,7.90
2016,03,25,11,00,7.90
2016,03,25,11,01,7.90
2016,03,25,11,02,7.80
2016,03,25,11,03,7.80
2016,03,25,11,04,7.80
2016,03,25,11,05,7.70
2016,03,25,11,06,7.70
2016,03,25,11,07,7.60
2016,03,25,11,08,7.60
2016,03,25,11,09,7.60
2016,03,25,11,10,7.60
2016,03,25,11,11,7.60
2016,03,25,11,12,7.50
2016,03,25,11,13,7.50
2016,03,25,11,14,7.40
2016,03,25,11,15,7.40
2016,03,25,11,16,7.40
2016,03,25,11,17,7.40
2016,03,25,11,18,7.40
2016,03,25,11,19,7.40
2016,03,25,11,20,7.50
2016,03,25,11,21,7.50
2016,03,25,11,22,7.50
2016,03,25,11,23,7.50
2016,03,25,11,24,7.50
2016,03,25,11,25,7.60
2016,03,25,11,26,7.60
2016,03,25,11,27,7.60
2016,03,25,11,28,7.60
2016,03,25,11,29,7.60
2016,03,25,11,30,7.60
2016,03,25,11,31,7.60
2016,03,25,11,32,7.60
2016,03,25,11,33,7.70
2016,03,25,11,34,7.70
2016,03,25,11,35,7.70
2016,03,25,11,36,7.80
2016,03,25,11,37,7.80
2016,03,25,11,38,7.80
2016,03,25,11,39,7.90
2016,03,25,11,40,7.90
2016,03,25,11,41,8.00
2016,03,25,11,42,8.00
2016,03,25,11,43,8.00
2016,03,25,11,44,8.10
2016,03,25,11,45,8.10
2016,03,25,11,46,8.10
2016,03,25,11,47,8.10
2016,03,25,11,48,8.10
2016,03,25,11,49,8.00
2016,03,25,11,50,8.00
2016,03,25,11,51,8.00
2016,03,25,11,52,8.00
2016,03,25,11,53,8.10
2016,03,25,11,54,8.10
2016,03,25,11,55,8.10
2016,03,25,11,56,8.10
2016,03,25,11,57,8.10
2016,03,25,11,58,8.10
2016,03,25,11,59,8.10
2016,03,25,12,00,8.10
2016,03,25,12,01,8.20
2016,03,25,12,02,8.20
2016,03,25,12,03,8.20
2016,03,25,12,04,8.30
2016,03,25,12,05,8.30
2016,03,25,12,06,8.30
2016,03,25,12,07,8.30
2016,03,25,12,08,8.30
2016,03,25,12,09,8.30
2016,03,25,12,10,8.30
2016,03,25,12,11,8.30
2016,03,25,12,12,8.30
2016,03,25,12,13,8.20
2016,03,25,12,14,8.30
2016,03,25,12,15,8.30
2016,03,25,12,16,8.30
2016,03,25,12,17,8.30
2016,03,25,12,18,8.30
2016,03,25,12,19,8.30
2016,03,25,12,20,8.40
2016,03,25,12,21,8.40
2016,03,25,12,22,8.50
2016,03,25,12,23,8.50
2016,03,25,12,24,8.50
2016,03,25,12,25,8.60
2016,03,25,12,26,8.60
2016,03,25,12,27,8.60
2016,03,25,12,28,8.60
2016,03,25,12,29,8.70
2016,03,25,12,30,8.70
2016,03,25,12,31,8.70
2016,03,25,12,32,8.80
2016,03,25,12,33,8.80
2016,03,25,12,34,8.80
2016,03,25,12,35,8.90
2016,03,25,12,36,8.90
2016,03,25,12,37,8.90
2016,03,25,12,38,9.00
2016,03,25,12,39,9.00
2016,03,25,12,40,9.10
2016,03,25,12,41,9.10
2016,03,25,12,42,9.10
2016,03,25,12,43,9.10
2016,03,25,12,44,9.10
2016,03,25,12,45,9.10
2016,03,25,12,46,9.10
2016,03,25,12,47,9.10
2016,03,25,12,48,9.10
2016,03,25,12,49,9.10
2016,03,25,12,50,9.10
2016,03,25,12,51,9.10
2016,03,25,12,52,9.10
2016,03,25,12,53,9.20
2016,03,25,12,54,9.10
2016,03,25,12,55,9.10
2016,03,25,12,56,9.00
2016,03,25,12,57,9.00
2016,03,25,12,58,9.00
2016,03,25,12,59,9.00
2016,03,25,13,00,9.10
2016,03,25,13,01,9.10
2016,03,25,13,02,9.10
2016,03,25,13,03,9.10
2016,03,25,13,04,9.00
2016,03,25,13,05,8.90
2016,03,25,13,06,8.90
2016,03,25,13,07,8.80
2016,03,25,13,08,8.70
2016,03,25,13,09,8.60
2016,03,25,13,10,8.60
2016,03,25,13,11,8.50
2016,03,25,13,12,8.50
2016,03,25,13,13,8.50
2016,03,25,13,14,8.50
2016,03,25,13,15,8.50
2016,03,25,13,16,8.50
2016,03,25,13,17,8.60
2016,03,25,13,18,8.60
2016,03,25,13,19,8.60
2016,03,25,13,20,8.60
2016,03,25,13,21,8.70
2016,03,25,13,22,8.70
2016,03,25,13,23,8.70
2016,03,25,13,24,8.80
2016,03,25,13,25,8.80
2016,03,25,13,26,8.90
2016,03,25,13,27,8.90
2016,03,25,13,28,8.90
2016,03,25,13,29,9.00
2016,03,25,13,30,9.00
2016,03,25,13,31,9.10
2016,03,25,13,32,9.10
2016,03,25,13,33,9.10
2016,03,25,13,34,9.10
2016,03,25,13,35,9.10
2016,03,25,13,36,9.20
2016,03,25,13,37,9.20
2016,03,25,13,38,9.30
2016,03,25,13,39,9.30
2016,03,25,13,40,9.30
2016,03,25,13,41,9.30
2016,03,25,13,42,9.30
2016,03,25,13,43,9.30
2016,03,25,13,44,9.30
2016,03,25,13,45,9.30
2016,03,25,13,46,9.30
2016,03,25,13,47,9.30
2016,03,25,13,48,9.30
2016,03,25,13,49,9.30
2016,03,25,13,50,9.20
2016,03,25,13,51,9.20
2016,03,25,13,52,9.20
2016,03,25,13,53,9.10
2016,03,25,13,54,9.10
2016,03,25,13,55,9.00
2016,03,25,13,56,9.00
2016,03,25,13,57,8.90
2016,03,25,13,58,8.80
2016,03,25,13,59,8.70
2016,03,25,14,00,8.70
2016,03,25,14,01,8.70
2016,03,25,14,02,8.70
2016,03,25,14,03,8.70
2016,03,25,14,04,8.70
2016,03,25,14,05,8.70
2016,03,25,14,06,8.70
2016,03,25,14,07,8.80
2016,03,25,14,08,8.80
2016,03,25,14,09,8.90
2016,03,25,14,10,9.00
2016,03,25,14,11,9.10
2016,03,25,14,12,9.20
2016,03,25,14,13,9.20
2016,03,25,14,14,9.30
2016,03,25,14,15,9.40
2016,03,25,14,16,9.40
2016,03,25,14,17,9.50
2016,03,25,14,18,9.60
2016,03,25,14,19,9.70
2016,03,25,14,20,9.70
2016,03,25,14,21,9.80
2016,03,25,14,22,9.90
2016,03,25,14,23,10.00
2016,03,25,14,24,10.00
2016,03,25,14,25,10.10
2016,03,25,14,26,10.20
2016,03,25,14,27,10.20
2016,03,25,14,28,10.30
2016,03,25,14,29,10.30
2016,03,25,14,30,10.40
2016,03,25,14,31,10.50
2016,03,25,14,32,10.50
2016,03,25,14,33,10.50
2016,03,25,14,34,10.60
2016,03,25,14,35,10.60
2016,03,25,14,36,10.60
2016,03,25,14,37,10.60
2016,03,25,14,38,10.50
2016,03,25,14,39,10.40
2016,03,25,14,40,10.30
2016,03,25,14,41,10.30
2016,03,25,14,42,10.20
2016,03,25,14,43,10.20
2016,03,25,14,44,10.10
2016,03,25,14,45,10.10
2016,03,25,14,46,10.10
2016,03,25,14,47,10.10
2016,03,25,14,48,10.00
2016,03,25,14,49,10.00
2016,03,25,14,50,10.00
2016,03,25,14,51,10.00
2016,03,25,14,52,10.10
2016,03,25,14,53,10.10
2016,03,25,14,54,10.20
2016,03,25,14,55,10.20
2016,03,25,14,56,10.30
2016,03,25,14,57,10.30
2016,03,25,14,58,10.40
2016,03,25,14,59,10.40
2016,03,25,15,00,10.40
2016,03,25,15,01,10.40
2016,03,25,15,02,10.40
2016,03,25,15,03,10.40
2016,03,25,15,04,10.40
2016,03,25,15,05,10.40
2016,03,25,15,06,10.40
2016,03,25,15,07,10.40
2016,03,25,15,08,10.40
2016,03,25,15,09,10.50
2016,03,25,15,10,10.60
2016,03,25,15,11,10.70
2016,03,25,15,12,10.70
2016,03,25,15,13,10.80
2016,03,25,15,14,10.90
2016,03,25,15,15,10.90
2016,03,25,15,16,10.90
2016,03,25,15,17,10.90
2016,03,25,15,18,10.90
2016,03,25,15,19,10.90
2016,03,25,15,20,10.90
2016,03,25,15,21,10.90
2016,03,25,15,22,10.90
2016,03,25,15,23,10.80
2016,03,25,15,24,10.80
2016,03,25,15,25,10.80
2016,03,25,15,26,10.70
2016,03,25,15,27,10.70
2016,03,25,15,28,10.70
2016,03,25,15,29,10.70
2016,03,25,15,30,10.80
2016,03,25,15,31,10.80
2016,03,25,15,32,10.80
2016,03,25,15,33,10.80
2016,03,25,15,34,10.80
2016,03,25,15,35,10.80
2016,03,25,15,36,10.80
2016,03,25,15,37,10.80
2016,03,25,15,38,10.80
2016,03,25,15,39,10.80
2016,03,25,15,40,10.90
2016,03,25,15,41,10.90
2016,03,25,15,42,11.00
2016,03,25,15,43,11.10
2016,03,25,15,44,11.10
2016,03,25,15,45,11.20
2016,03,25,15,46,11.20
2016,03,25,15,47,11.20
2016,03,25,15,48,11.20
2016,03,25,15,49,11.20
2016,03,25,15,50,11.20
2016,03,25,15,51,11.20
2016,03,25,15,52,11.20
2016,03,25,15,53,11.20
2016,03,25,15,54,11.20
2016,03,25,15,55,11.20
2016,03,25,15,56,11.20
2016,03,25,15,57,11.20
2016,03,25,15,58,11.20
2016,03,25,15,59,11.30
2016,03,25,16,00,11.30
2016,03,25,16,01,11.30
2016,03,25,16,02,11.30
2016,03,25,16,03,11.30
2016,03,25,16,04,11.20
2016,03,25,16,05,11.20
2016,03,25,16,06,11.20
2016,03,25,16,07,11.20
2016,03,25,16,08,11.10
2016,03,25,16,09,11.10
2016,03,25,16,10,11.10
2016,03,25,16,11,11.10
2016,03,25,16,12,11.10
2016,03,25,16,13,11.10
2016,03,25,16,14,11.00
2016,03,25,16,15,11.00
2016,03,25,16,16,10.90
2016,03,25,16,17,10.90
2016,03,25,16,18,10.90
2016,03,25,16,19,11.00
2016,03,25,16,20,11.00
2016,03,25,16,21,11.00
2016,03,25,16,22,11.10
2016,03,25,16,23,11.10
2016,03,25,16,24,11.10
2016,03,25,16,25,11.10
2016,03,25,16,26,11.20
2016,03,25,16,27,11.20
2016,03,25,16,28,11.20
2016,03,25,16,29,11.20
2016,03,25,16,30,11.20
2016,03,25,16,31,11.20
2016,03,25,16,32,11.30
2016,03,25,16,33,11.30
2016,03,25,16,34,11.20
2016,03,25,16,35,11.30
2016,03,25,16,36,11.30
2016,03,25,16,37,11.30
2016,03,25,16,38,11.30
2016,03,25,16,39,11.30
2016,03,25,16,40,11.30
2016,03,25,16,41,11.40
2016,03,25,16,42,11.40
2016,03,25,16,43,11.40
2016,03,25,16,44,11.40
2016,03,25,16,45,11.50
2016,03,25,16,46,11.50
2016,03,25,16,47,11.60
2016,03,25,16,48,11.60
2016,03,25,16,49,11.60
2016,03,25,16,50,11.60
2016,03,25,16,51,11.60
2016,03,25,16,52,11.60
2016,03,25,16,53,11.60
2016,03,25,16,54,11.60
2016,03,25,16,55,11.60
2016,03,25,16,56,11.50
2016,03,25,16,57,11.60
2016,03,25,16,58,11.50
2016,03,25,16,59,11.50
2016,03,25,17,00,11.40
2016,03,25,17,01,11.40
2016,03,25,17,02,11.30
2016,03,25,17,03,11.30
2016,03,25,17,04,11.20
2016,03,25,17,05,11.10
2016,03,25,17,06,11.10
2016,03,25,17,07,11.00
2016,03,25,17,08,11.00
2016,03,25,17,09,11.00
2016,03,25,17,10,11.00
2016,03,25,17,11,11.10
2016,03,25,17,12,11.10
2016,03,25,17,13,11.10
2016,03,25,17,14,11.10
2016,03,25,17,15,11.10
2016,03,25,17,16,11.10
2016,03,25,17,17,11.10
2016,03,25,17,18,11.10
2016,03,25,17,19,11.10
2016,03,25,17,20,11.10
2016,03,25,17,21,11.10
2016,03,25,17,22,11.10
2016,03,25,17,23,11.10
2016,03,25,17,24,11.10
2016,03,25,17,25,11.20
2016,03,25,17,26,11.20
2016,03,25,17,27,11.20
2016,03,25,17,28,11.20
2016,03,25,17,29,11.20
2016,03,25,17,30,11.10
2016,03,25,17,31,11.10
2016,03,25,17,32,11.10
2016,03,25,17,33,11.10
2016,03,25,17,34,11.10
2016,03,25,17,35,11.10
2016,03,25,17,36,11.10
2016,03,25,17,37,11.10
2016,03,25,17,38,11.10
2016,03,25,17,39,11.10
2016,03,25,17,40,11.10
2016,03,25,17,41,11.00
2016,03,25,17,42,11.00
2016,03,25,17,43,10.90
2016,03,25,17,44,10.80
2016,03,25,17,45,10.80
2016,03,25,17,46,10.80
2016,03,25,17,47,10.80
2016,03,25,17,48,10.80
2016,03,25,17,49,10.80
2016,03,25,17,50,10.80
2016,03,25,17,51,10.80
2016,03,25,17,52,10.80
2016,03,25,17,53,10.70
2016,03,25,17,54,10.70
2016,03,25,17,55,10.70
2016,03,25,17,56,10.60